Terminal Aerodrome Forecast
Issued by NWS Billings, MT

Home | Current Version | Previous Version | Text Only | Print | Product List | Glossary Off
Versions: 1 2 3 4 5 6 7 8 9 10 11 12 13 14 15 16 17 18 19 20 21 22 23 24 25 26 27 28 29 30 31 32 33 34

939
FTUS45 KBYZ 251720
TAFMLS
TAF
KMLS 251720Z 2518/2618 29025G35KT P6SM VCSH FEW035 BKN060
     FM260300 30010KT P6SM SCT060
     FM261600 31014G22KT P6SM SCT060 BKN200=

USA.gov is the U.S. government's official web portal to all federal, state and local government web resources and services.